sat.trackr.live / text

‹ back to catalog

STARLINK-35370

NORAD 66085 · 2025-235AD

PAYLOAD ACTIVE UNKNOWN

§ Identity

Operator
Country
US
Launch date
2025-10-19
Launch site
AFETR
Launch vehicle
Mass (kg)
RCS (m²)

Purposes: comms

External: N2YO · Heavens-Above · Gunter

§ Orbital elements

Epoch: 2026-05-25T00:24:19.702080Z

Period
94.10 min
Inclination
53.1600°
Eccentricity
0.0002398
Mean motion
15.30229521 rev/d
Perigee alt
473.5 km
Apogee alt
476.8 km
Semi-major
6,853.3 km
B*
3.9245e-4
RAAN
251.0046°
Arg perigee
90.4017°
Mean anomaly
269.7258°
Rev number
3,457

§ Raw data

STARLINK-353701 66085U 25235AD  26145.01689470  .00011292  00000+0  39245-3 0  99952 66085  53.1600 251.0046 0002398  90.4017 269.7258 15.30229521 34571

JSON: /api/v1/satellites/66085 · /tle

For live sub-satellite position, see the globe view (requires WebGL).

§ Visibility from observer

Set your observer location to see the next 7 days of passes ≥ 10°. The values pass through the URL so the page stays shareable.

No JS? Fill the form by hand. The geolocation button needs JavaScript.